Location: Newark
(27.9675°N, 86.8869°E)
Time: 08:37:09
(UTC+00:00)

deb Explorer IX - Pass Details

Date: 27 October 2019
Orbit: 546 x 1105 km, 38.8° (Epoch: 13 November)

Event Time Altitude Azimuth Distance (km) Brightness Sun altitude
Rises 10:53:08 0° 293° (WNW) 3,366 ? 7.5°
Reaches altitude 10° 10:55:35 10° 287° (WNW) 2,516 ? 7.0°
Maximum altitude 11:01:23 46° 215° (SW) 1,269 ? 5.8°
Drops below altitude 10° 11:07:57 10° 145° (SE) 2,846 ? 4.4°
Sets 11:10:54 0° 139° (SE) 3,849 ? 3.8°
